Tracking 29932 objects as of 3-Dec-2024
HD Live streaming from Space Station
objects crossing your sky now

STARLINK-31587

Track STARLINK-31587 now!
10-day predictions
STARLINK-31587 is classified as:


NORAD ID: 59570
Int'l Code: 2024-076G
Perigee: 450.3 km
Apogee: 452.1 km
Inclination: 43.0 °
Period: 93.5 minutes
Semi major axis: 6822 km
RCS: Unknown
Launch date: April 23, 2024
Source: United States (US)
Launch site: AIR FORCE EASTERN TEST RANGE (AFETR)
Your satellite tracking list
Your tracking list is empty




NASA's NSSDC Master Catalog

Two Line Element Set (TLE):
1 59570U 24076G   24337.71158039 -.00000978  00000-0 -16171-4 0  9994
2 59570  42.9992 110.6012 0001343 264.0389  96.0314 15.40684327 35727
Source of the keplerian elements: AFSPC